Weather History for KOFP - April, 2013

Change the Weather History Date:

Monday, April 22, 2013

  Actual Average Record
Temperature  
Mean Temperature 44 °F -  
Max Temperature 57 °F 71 °F 94 °F (1985)
Min Temperature 32 °F 46 °F 28 °F (1953)
Degree Days  
Heating Degree Days 20    
Moisture  
Dew Point 36 °F    
Average Humidity 71    
Maximum Humidity 96    
Minimum Humidity 45    
Precipitation  
Precipitation 0.00 in - - ()
Sea Level Pressure  
Sea Level Pressure 30.47 in    
Wind  
Wind Speed 3 mph (NNE)    
Max Wind Speed 10 mph    
Max Gust Speed 18 mph    
Visibility 10 miles    
Events      
Averages and records for this station are not official NWS values.
T = Trace of Precipitation, MM = Missing Value Source: NWS Daily Summary

Daily Weather History Graph

Daily Weather History Graph

Search for Another Location

Airport or City:

Trip Planner

Search our weather history database for the weather conditions in past years. The results will help you decide how hot, cold, wet, or windy it might be!

Date:

Astronomy

Apr. 22, 2013 Rise Set
Actual Time 6:24 AM EDT 7:52 PM EDT
Civil Twilight 5:57 AM EDT 8:19 PM EDT
Nautical Twilight 5:24 AM EDT 8:52 PM EDT
Astronomical Twilight 4:49 AM EDT 9:27 PM EDT
Moon 4:41 PM EDT (4/22) 4:14 AM EDT (4/22)
Length of Visible Light 14h 22m
Length of Day
13h 27m
Waxing Gibbous, 87% of the Moon is Illuminated
Apr 22
Waxing Gibbous
Apr 25
Full
May 2
Last Quarter
May 9
New
May 18
First Quarter

Hourly Weather History & Observations

Time (EDT) Temp. Windchill Dew Point Humidity Pressure Visibility Wind Dir Wind Speed Gust Speed Precip Events Conditions
12:54 AM 36.0 °F - 33.1 °F 89% 30.56 in 10.0 mi Calm Calm - N/A   Clear
1:54 AM 34.0 °F - 33.1 °F 96% 30.56 in 10.0 mi Calm Calm - N/A   Clear
2:54 AM 33.1 °F - 32.0 °F 96% 30.54 in 9.0 mi Calm Calm - N/A   Clear
3:54 AM 32.0 °F - 30.9 °F 96% 30.53 in 9.0 mi Calm Calm - N/A   Clear
4:54 AM 32.0 °F - 30.9 °F 96% 30.52 in 8.0 mi Calm Calm - N/A   Clear
5:54 AM 34.0 °F - 32.0 °F 92% 30.50 in 10.0 mi Calm Calm - N/A   Clear
6:54 AM 34.0 °F - 33.1 °F 96% 30.53 in 9.0 mi Calm Calm - N/A   Clear
7:54 AM 37.9 °F 34.4 °F 34.0 °F 86% 30.53 in 10.0 mi North 4.6 mph - N/A   Mostly Cloudy
8:54 AM 42.1 °F 40.2 °F 35.1 °F 76% 30.52 in 10.0 mi Variable 3.5 mph - N/A   Overcast
9:54 AM 46.9 °F - 37.0 °F 68% 30.52 in 10.0 mi NNE 6.9 mph - N/A   Overcast
10:50 AM 50.0 °F - 39.2 °F 66% 30.51 in 10.0 mi NNE 9.2 mph - N/A   Overcast
10:54 AM 48.9 °F - 37.9 °F 66% 30.51 in 10.0 mi North 8.1 mph - N/A   Overcast
11:54 AM 52.0 °F - 37.0 °F 57% 30.50 in 10.0 mi Variable 6.9 mph - N/A   Overcast
12:54 PM 53.1 °F - 36.0 °F 52% 30.48 in 10.0 mi NNE 10.4 mph - N/A   Mostly Cloudy
1:54 PM 55.9 °F - 37.0 °F 49% 30.46 in 10.0 mi East 10.4 mph - N/A   Scattered Clouds
2:54 PM 55.9 °F - 36.0 °F 47% 30.43 in 10.0 mi Variable 6.9 mph 18.4 mph N/A   Mostly Cloudy
3:54 PM 57.0 °F - 36.0 °F 45% 30.40 in 10.0 mi NE 8.1 mph - N/A   Overcast
4:54 PM 55.0 °F - 36.0 °F 49% 30.38 in 10.0 mi NE 9.2 mph 16.1 mph N/A   Overcast
5:54 PM 55.0 °F - 39.0 °F 55% 30.39 in 10.0 mi Variable 5.8 mph - N/A   Overcast
6:54 PM 53.1 °F - 39.9 °F 61% 30.39 in 10.0 mi NE 9.2 mph - N/A   Overcast
7:54 PM 51.1 °F - 41.0 °F 68% 30.38 in 10.0 mi Variable 4.6 mph - N/A   Overcast
8:35 PM 51.8 °F - 41.0 °F 67% 30.39 in 10.0 mi Calm Calm - N/A   Overcast
8:54 PM 51.1 °F - 41.0 °F 68% 30.40 in 10.0 mi NE 4.6 mph - N/A   Overcast
9:54 PM 50.0 °F - 39.9 °F 68% 30.40 in 10.0 mi NNE 4.6 mph - N/A   Overcast
10:54 PM 48.9 °F - 39.9 °F 71% 30.39 in 10.0 mi Variable 5.8 mph - N/A   Overcast
11:54 PM 48.9 °F - 41.0 °F 74% 30.38 in 10.0 mi North 4.6 mph - N/A   Overcast